Nassau, Bahamas

12:21 PM EDT on March 26, 2017 (GMT -0400)
Nassau

Weather History for 78073 - August, 2013

Change the Weather History Date:

Wednesday, August 7, 2013

  Actual Average Record
Temperature  
Mean Temperature 84 °F -  
Max Temperature 90 °F 89 °F - ()
Min Temperature 77 °F 75 °F - ()
Cooling Degree Days 18    
Growing Degree Days 34 (Base 50)    
Moisture  
Dew Point 75 °F    
Average Humidity 74    
Maximum Humidity 94    
Minimum Humidity 56    
Precipitation  
Precipitation 0.00 in 0.27 in - ()
Sea Level Pressure  
Sea Level Pressure 29.98 in    
Wind  
Wind Speed 5 mph ()    
Max Wind Speed 15 mph    
Max Gust Speed -    
Visibility 6.6 miles    
Events Rain    
T = Trace of Precipitation, MM = Missing Value Source: Averaged Metar Reports

Daily Weather History Graph

Daily Weather History Graph

Search for Another Location

Airport or City:

Trip Planner

Search our weather history database for the weather conditions in past years. The results will help you decide how hot, cold, wet, or windy it might be!

Date:

Astronomy

Aug. 07, 2013 Rise Set
Actual Time 6:40 AM EDT 7:50 PM EDT
Civil Twilight 6:16 AM EDT 8:14 PM EDT
Nautical Twilight 5:47 AM EDT 8:43 PM EDT
Astronomical Twilight 5:17 AM EDT 9:12 PM EDT
Moon 7:15 AM EDT (8/7) 8:11 PM EDT (8/7)
Length of Visible Light 13h 58m
Length of Day
13h 10m
New Moon, 1% of the Moon is Illuminated
Aug 7
New Moon
Aug 14
First Quarter
Aug 20
Full
Aug 28
Last Quarter
Sep 5
New

Hourly Weather History & Observations

Time (EDT) Temp. Heat Index Dew Point Humidity Pressure Visibility Wind Dir Wind Speed Gust Speed Precip Events Conditions
1:00 AM 78.8 °F - 75.2 °F 89% 29.99 in 6.2 mi ESE 3.5 mph - N/A   Scattered Clouds
2:00 AM 79 °F - 76 °F 89% 29.98 in 9 mi Calm Calm - -   Partly Cloudy
2:00 AM 78.8 °F - 77.0 °F 94% 29.98 in 6.2 mi Calm Calm - N/A   Scattered Clouds
3:00 AM 80.6 °F 86.2 °F 75.2 °F 84% 29.96 in 6.2 mi ESE 3.5 mph - N/A   Scattered Clouds
4:00 AM 80.6 °F 86.2 °F 75.2 °F 84% 29.95 in 6.2 mi SE 3.5 mph - N/A   Scattered Clouds
5:00 AM 80.6 °F 86.2 °F 75.2 °F 84% 29.96 in 6.2 mi SSE 3.5 mph - N/A   Scattered Clouds
6:00 AM 80.6 °F 85.4 °F 73.4 °F 79% 29.95 in 6.2 mi ESE 4.6 mph - N/A   Scattered Clouds
7:00 AM 80.6 °F 85.4 °F 73.4 °F 79% 29.97 in 6.2 mi SSE 4.6 mph - N/A   Partly Cloudy
8:00 AM 82.4 °F 89.5 °F 75.2 °F 79% 29.97 in 6.2 mi ESE 4.6 mph - N/A   Scattered Clouds
9:00 AM 84.2 °F 90.9 °F 73.4 °F 70% 29.99 in 6.2 mi SE 10.4 mph - N/A   Scattered Clouds
10:00 AM 86.0 °F 93.4 °F 73.4 °F 66% 30.00 in 6.2 mi SE 9.2 mph - N/A   Scattered Clouds
11:00 AM 86.0 °F 96.9 °F 77.0 °F 74% 30.01 in 6.2 mi ESE 9.2 mph - N/A   Scattered Clouds
12:00 PM 87.8 °F 95.6 °F 73.4 °F 62% 30.00 in 6.2 mi SE 10.4 mph - N/A   Scattered Clouds
1:00 PM 87.8 °F 95.6 °F 73.4 °F 62% 30.00 in 6.2 mi ESE 10.4 mph - N/A   Scattered Clouds
2:00 PM 89 °F - 75 °F 56% 29.99 in 9 mi SE 10.4 mph - -   Partly Cloudy
2:00 PM 89.6 °F 99.8 °F 75.2 °F 62% 29.98 in 6.2 mi SE 10.4 mph - N/A   Scattered Clouds
3:00 PM 87.8 °F 95.6 °F 73.4 °F 62% 29.98 in 6.2 mi ESE 10.4 mph - N/A   Scattered Clouds
4:00 PM - - - N/A% 29.97 in 6.2 mi East 9.2 mph - N/A   Scattered Clouds
5:00 PM 89 °F - 76 °F 57% 29.97 in - 15.0 mph - -   Partly Cloudy
5:00 PM 89.6 °F 99.8 °F 75.2 °F 62% 29.97 in 6.2 mi SE 11.5 mph - N/A   Scattered Clouds
6:00 PM 86.0 °F 95.1 °F 75.2 °F 70% 29.96 in 6.2 mi SE 10.4 mph - N/A   Scattered Clouds
8:00 PM 85 °F - 76 °F 67% 29.97 in 9 mi East 4.6 mph - -   Scattered Clouds
8:00 PM 86.0 °F 95.1 °F 75.2 °F 70% 29.97 in 6.2 mi East 4.6 mph - N/A   Partly Cloudy
9:00 PM 84.2 °F 92.3 °F 75.2 °F 74% 29.98 in 6.2 mi North - - N/A   Partly Cloudy
10:00 PM 77.0 °F - 69.8 °F 78% 30.00 in 6.2 mi East 4.6 mph - N/A   Scattered Clouds
11:00 PM 80 °F - 76 °F 83% 30.01 in 9 mi ESE 3.5 mph - - Rain Light Rain Showers
11:00 PM 80.6 °F 86.2 °F 75.2 °F 84% 30.00 in 6.2 mi ESE 3.5 mph - N/A   Scattered Clouds